Marshfield, WI

2:40 PM CST on February 11, 2016 (GMT -0600)
Marshfield Municipal

Weather History for KMFI - March, 2014

Change the Weather History Date:

Friday, March 28, 2014

  Actual Average Record
Temperature  
Mean Temperature 32 °F -  
Max Temperature 37 °F - - ()
Min Temperature 28 °F - - ()
Degree Days  
Heating Degree Days 32    
Moisture  
Dew Point 23 °F    
Average Humidity 70    
Maximum Humidity 89    
Minimum Humidity 50    
Precipitation  
Precipitation 0.00 in - - ()
Sea Level Pressure  
Sea Level Pressure 29.95 in    
Wind  
Wind Speed 13 mph (NNW)    
Max Wind Speed 21 mph    
Max Gust Speed 29 mph    
Visibility 10 miles    
Events      
T = Trace of Precipitation, MM = Missing Value Source: NWS Daily Summary

Daily Weather History Graph

Daily Weather History Graph

Search for Another Location

Airport or City:

Trip Planner

Search our weather history database for the weather conditions in past years. The results will help you decide how hot, cold, wet, or windy it might be!

Date:

Astronomy

Mar. 28, 2014 Rise Set
Actual Time 6:49 AM CDT 7:23 PM CDT
Civil Twilight 6:19 AM CDT 7:52 PM CDT
Nautical Twilight 5:45 AM CDT 8:27 PM CDT
Astronomical Twilight 5:09 AM CDT 9:03 PM CDT
Moon 5:25 AM CDT (3/28) 5:15 PM CDT (3/28)
Length of Visible Light 13h 32m
Length of Day
12h 34m
Waning Crescent, 6% of the Moon is Illuminated
Mar 28
Waning Crescent
Mar 30
New
Apr 7
First Quarter
Apr 15
Full
Apr 22
Last Quarter

Hourly Weather History & Observations

Time (CDT) Temp. Windchill Dew Point Humidity Pressure Visibility Wind Dir Wind Speed Gust Speed Precip Events Conditions
12:54 AM 35.1 °F 26.4 °F 32.0 °F 89% 29.57 in 8.0 mi North 12.7 mph - 0.00 in   Overcast
1:09 AM 35.1 °F 26.9 °F 32.0 °F 89% 29.54 in 10.0 mi North 11.5 mph - N/A   Overcast
1:54 AM 34.0 °F 22.7 °F 28.9 °F 82% 29.61 in 10.0 mi North 19.6 mph 25.3 mph N/A   Mostly Cloudy
2:02 AM 34.0 °F 22.4 °F 28.0 °F 79% 29.57 in 10.0 mi North 20.7 mph 26.5 mph N/A   Mostly Cloudy
2:54 AM 32.0 °F 20.8 °F 27.0 °F 82% 29.65 in 10.0 mi North 17.3 mph - N/A   Overcast
3:41 AM 30.9 °F 19.1 °F 26.1 °F 82% 29.65 in 10.0 mi North 18.4 mph - N/A   Overcast
3:54 AM 30.0 °F 18.3 °F 26.1 °F 85% 29.71 in 10.0 mi North 17.3 mph - N/A   Overcast
4:54 AM 30.0 °F 18.3 °F 25.0 °F 82% 29.77 in 8.0 mi North 17.3 mph 27.6 mph N/A   Overcast
5:54 AM 28.9 °F 17.7 °F 24.1 °F 82% 29.83 in 9.0 mi NNW 15.0 mph 28.8 mph N/A   Overcast
6:54 AM 28.0 °F 14.9 °F 21.9 °F 78% 29.89 in 10.0 mi NNW 19.6 mph 25.3 mph N/A   Overcast
7:54 AM 28.0 °F 15.3 °F 21.0 °F 75% 29.94 in 10.0 mi North 18.4 mph 26.5 mph N/A   Overcast
8:54 AM 28.9 °F 18.6 °F 19.9 °F 69% 29.97 in 10.0 mi North 12.7 mph - N/A   Mostly Cloudy
9:38 AM 28.9 °F 18.6 °F 19.9 °F 69% 29.93 in 10.0 mi North 12.7 mph - N/A   Partly Cloudy
9:54 AM 30.0 °F 22.4 °F 21.0 °F 69% 29.99 in 10.0 mi North 8.1 mph - N/A   Clear
10:54 AM 30.9 °F 21.7 °F 21.0 °F 67% 30.02 in 10.0 mi North 11.5 mph 18.4 mph N/A   Clear
11:54 AM 33.1 °F 24.4 °F 21.0 °F 61% 30.05 in 10.0 mi NNW 11.5 mph - N/A   Clear
12:54 PM 34.0 °F 28.0 °F 21.9 °F 61% 30.06 in 10.0 mi North 6.9 mph - N/A   Clear
1:54 PM 34.0 °F 25.5 °F 21.0 °F 59% 30.09 in 10.0 mi NNW 11.5 mph - N/A   Partly Cloudy
2:54 PM 35.1 °F 27.9 °F 21.9 °F 59% 30.10 in 10.0 mi North 9.2 mph - N/A   Clear
3:54 PM 37.0 °F 31.6 °F 19.9 °F 50% 30.12 in 10.0 mi Variable 6.9 mph - N/A   Clear
4:54 PM 37.0 °F 31.6 °F 21.0 °F 52% 30.14 in 10.0 mi NNW 6.9 mph - N/A   Clear
5:54 PM 36.0 °F 31.1 °F 23.0 °F 59% 30.16 in 10.0 mi NW 5.8 mph - N/A   Clear
6:54 PM 35.1 °F 32.2 °F 21.0 °F 57% 30.19 in 10.0 mi WNW 3.5 mph - N/A   Clear
7:54 PM 33.1 °F - 21.9 °F 64% 30.19 in 10.0 mi Calm Calm - N/A   Clear
8:54 PM 30.9 °F 26.2 °F 21.9 °F 69% 30.20 in 10.0 mi North 4.6 mph - N/A   Clear
9:54 PM 30.9 °F 27.5 °F 21.0 °F 67% 30.22 in 10.0 mi NNW 3.5 mph - N/A   Scattered Clouds
10:54 PM 30.9 °F 23.5 °F 21.9 °F 69% 30.21 in 10.0 mi North 8.1 mph - N/A   Partly Cloudy
11:54 PM 33.1 °F 26.9 °F 21.9 °F 64% 30.20 in 10.0 mi NNE 6.9 mph - N/A   Overcast